EW8784 Weather Reports


time (UTC)temp
C
wind
direction
speed
KPH
gust
KPH
rain 1hr
cm
rain 24hr
cm
rain mn
cm
humidity
%
barometer
mb
20260503230004 20 359 3.2 14.5 0.00 0.05 0.05 100 1001.9
20260503224507 21 197 11.3 27.4 0.00 0.05 0.05 100 1001.8
20260503223003 21 166 4.8 14.5 0.00 0.05 0.05 100 1001.6
20260503221506 21 76 4.8 16.1 0.00 0.05 0.05 100 1001.6
20260503214506 20 298 9.7 19.3 0.00 0.05 0.05 100 1001.5
20260503213002 20 288 9.7 32.2 0.00 0.05 0.05 100 1001.3
20260503211506 20 124 11.3 24.1 0.00 0.05 0.05 100 1001.3
20260503210003 20 65 4.8 19.3 0.00 0.00 0.00 100 1001.4
20260503203036 20 239 14.5 48.3 0.00 0.00 0.00 100 1001.6
20260503201506 20 329 4.8 16.1 0.00 0.00 0.00 100 1001.6
20260503200004 20 14 3.2 14.5 0.00 0.00 0.00 100 1001.5
20260503194505 20 359 11.3 29.0 0.00 0.00 0.00 100 1001.6
20260503193003 20 132 24.1 61.2 0.00 0.00 0.00 100 1001.7
20260503191505 20 359 24.1 54.7 0.00 0.00 0.00 100 1001.5
20260503190008 20 221 17.7 54.7 0.00 0.00 0.00 100 1001.8
20260503184505 20 263 19.3 43.5 0.00 0.00 0.00 100 1002.3
20260503181505 20 359 17.7 40.2 0.00 0.00 0.00 100 1003.0
20260503173008 19 166 12.9 22.5 0.00 0.00 0.00 100 1004.5
20260503171504 18 128 9.7 20.9 0.00 0.00 0.00 100 1005.3
20260503071509 21 359 12.9 22.5 0.00 0.00 0.00 100 1010.7
20260503054508 22 323 11.3 25.7 0.00 0.00 0.00 100 1011.2
20260503053005 23 277 12.9 29.0 0.00 0.00 0.00 85 1011.5
20260503051507 23 207 14.5 27.4 0.00 0.00 0.00 67 1011.9
20260503050005 24 160 9.7 17.7 0.00 0.00 0.00 56 1012.3
20260503044508 24 77 9.7 16.1 0.00 0.00 0.00 56 1012.6
20260503043005 23 101 11.3 22.5 0.00 0.00 0.00 54 1012.9
20260503041506 23 181 8.0 22.5 0.00 0.00 0.00 52 1013.1
20260503034507 23 100 11.3 20.9 0.00 0.00 0.00 46 1013.5
20260503031505 23 139 11.3 16.1 0.00 0.00 0.00 40 1014.1
20260503030008 23 184 9.7 17.7 0.00 0.00 0.00 38 1014.5
20260503024505 23 359 6.4 14.5 0.00 0.00 0.00 37 1014.4
20260503023003 23 98 4.8 14.5 0.00 0.00 0.00 36 1014.8
20260503021503 22 359 4.8 11.3 0.00 0.00 0.00 42 1015.0
20260503020007 22 118 8.0 14.5 0.00 0.00 0.00 41 1015.3
20260503013007 22 252 3.2 3.2 0.00 0.00 0.00 46 1015.7
20260503011503 21 345 1.6 3.2 0.00 0.00 0.00 45 1015.8
20260503010007 21 276 0.0 0.0 0.00 0.00 0.00 46 1016.0
20260503004504 21 291 0.0 0.0 0.00 0.00 0.00 46 1016.2
20260503001502 21 349 1.6 3.2 0.00 0.00 0.00 46 1016.4
20260503000006 20 354 3.2 3.2 0.00 0.00 0.00 47 1016.3
20260502234504 20 284 0.0 0.0 0.00 0.00 0.00 47 1016.4